Location: Palomar Mountain Lodge
(33.3110°N, 116.8495°W)
Time: 21:57:03
(UTC-07:00)

Cosmos 864 Rocket - Pass Details

Date: 12 July 2018
Orbit: 953 x 992 km, 82.9° (Epoch: 17 July)

Event Time Altitude Azimuth Distance (km) Brightness Sun altitude
Rises 23:13:55 0° 353° (N) 3,644 8.5 -30.0°
Reaches altitude 10° 23:16:26 10° 353° (N) 2,691 7.6 -30.2°
Enters shadow 23:22:12 80° 339° (NNW) 971 4.4 -30.8°
